Regional Weather Roundup
Issued by NWS

Home | Current Version | Previous Version | Graphics & Text | Print | Product List | Glossary On
Versions: 1 2 3 4 5 6 7 8 9 10 11 12 13 14 15 16 17 18 19 20 21 22 23 24 25 26 27 28 29 30 31 32 33 34 35 36 37 38 39 40 41 42 43 44 45 46 47 48 49
000
ASUS45 KCYS 280310
RWRWY

WYOMING REGIONAL WEATHER ROUNDUP
NATIONAL WEATHER SERVICE CHEYENNE WY
900 PM MDT THU AUG 27 2015

NOTE:  "FAIR" INDICATES FEW OR NO CLOUDS BELOW 12,000 FEET
WITH NO SIGNIFICANT WEATHER AND/OR OBSTRUCTIONS TO VISIBILITY.

WYZ001-280400-
YELLOWSTONE NATIONAL PARK

CITY           SKY/WX    TMP DP  RH WIND       PRES   REMARKS
LK YELLOWSTONE   N/A     47  45  93 CALM      30.43S
W YELLOWSTONE  NOT AVBL

$$
WYZ002>013-054>058-071-098>099-280400-
NORTHERN WYOMING

CITY           SKY/WX    TMP DP  RH WIND       PRES   REMARKS
JACKSON        FAIR      61  52  72 N6        30.30R
CODY           FAIR      66  45  45 SW10G18   30.19S
GREYBULL       MOCLDY    71  46  40 S8        30.15R
WORLAND        CLOUDY    62  56  80 E12       30.20S HAZE
SHERIDAN       FAIR      68  51  54 SW5       30.08R
BUFFALO        FAIR      73  42  32 NW9       30.15R
GILLETTE       FAIR      73  48  41 NW12      30.07R
HULETT         FAIR      72  54  53 E5        30.07R
NEWCASTLE      FAIR      70  46  43 CALM      30.07R

$$
WYZ014>020-022>026-101>103-280400-
CENTRAL WYOMING

CITY           SKY/WX    TMP DP  RH WIND       PRES   REMARKS
BIG PINEY      FAIR      57  38  48 N6        30.34R
PINEDALE       FAIR      61  46  59 NW5       30.35R
DUBOIS         DRIZZLE   52  45  76 S13       30.42S
LANDER         TSTM      57  51  80 NW21G28   30.30R
RIVERTON       CLOUDY    66  45  46 NW24G35   30.29R
CASPER         FAIR      66  45  46 S7        30.17R
DOUGLAS        MOCLDY    69  47  45 CALM      30.14R

$$
WYZ021-027>030-104>119-280400-
SOUTHERN WYOMING

CITY           SKY/WX    TMP DP  RH WIND       PRES   REMARKS
EVANSTON       FAIR      64  37  36 NE3       30.36R
KEMMERER       FAIR      59  37  44 NW7       30.37R
FORT BRIDGER   CLEAR     61  34  36 W7        30.38R
ROCK SPRINGS   FAIR      60  46  59 SW5       30.33R
DIXON          FAIR      59  44  57 E7        30.30R
RAWLINS        FAIR      61  51  70 NW8       30.27S
SARATOGA       FAIR      57  46  67 W13       30.29R
LARAMIE        CLOUDY    61  50  67 N6        30.28R
CHEYENNE       FAIR      65  50  58 CALM      30.19S
TORRINGTON     FAIR      71  54  54 NE3       30.07R
PINE BLUFFS    FAIR      64  50  59 NW7       30.14R

$$


USA.gov is the U.S. government's official web portal to all federal, state and local government web resources and services.